Time,TemperatureF,DewpointF,PressureIn,WindDirection,WindDirectionDegrees,WindSpeedMPH,WindSpeedGustMPH,Humidity,HourlyPrecipIn,Conditions,Clouds,dailyrainin,SoftwareType,DateUTC
2013-09-15 00:00:00,75.4,72.9,29.94,ESE,117,0.0,0.0,92,0.00,CLR,,0.00,WeatherDisplay:10.37,2013-09-15 04:00:00,
2013-09-15 00:01:00,75.4,72.9,29.94,ESE,111,0.2,1.2,92,0.00,CLR,,0.00,WeatherDisplay:10.37,2013-09-15 04:01:00,
2013-09-15 00:06:00,75.4,72.9,29.94,ESE,117,0.0,0.0,92,0.00,CLR,,0.00,WeatherDisplay:10.37,2013-09-15 04:06:00,
2013-09-15 00:11:00,75.3,72.8,29.94,ESE,109,0.0,0.0,92,0.00,CLR,,0.00,WeatherDisplay:10.37,2013-09-15 04:11:00,
2013-09-15 00:16:00,75.3,72.5,29.94,ESE,109,0.0,0.0,91,0.00,CLR,,0.00,WeatherDisplay:10.37,2013-09-15 04:16:00,
2013-09-15 00:21:00,75.3,72.2,29.95,ESE,120,0.2,1.2,90,0.00,CLR,,0.00,WeatherDisplay:10.37,2013-09-15 04:21:00,
2013-09-15 00:26:00,75.3,71.8,29.94,East,96,0.4,1.2,89,0.00,CLR,,0.00,WeatherDisplay:10.37,2013-09-15 04:26:00,
2013-09-15 00:31:00,75.3,71.5,29.95,East,82,1.7,3.0,88,0.00,CLR,,0.00,WeatherDisplay:10.37,2013-09-15 04:31:00,
2013-09-15 00:36:00,75.3,71.5,29.95,ESE,105,0.2,1.2,88,0.00,CLR,,0.00,WeatherDisplay:10.37,2013-09-15 04:36:00,
2013-09-15 00:41:00,75.2,71.4,29.95,ESE,107,0.4,1.2,88,0.00,CLR,,0.00,WeatherDisplay:10.37,2013-09-15 04:41:00,
2013-09-15 00:46:00,75.1,71.3,29.95,ENE,77,0.0,1.2,88,0.00,CLR,,0.00,WeatherDisplay:10.37,2013-09-15 04:46:00,
2013-09-15 00:51:00,74.9,71.4,29.95,East,82,0.8,1.0,89,0.00,CLR,,0.00,WeatherDisplay:10.37,2013-09-15 04:51:00,
2013-09-15 00:57:00,74.8,71.3,29.95,East,98,0.0,0.0,89,0.00,CLR,,0.00,WeatherDisplay:10.37,2013-09-15 04:57:00,
2013-09-15 01:02:00,74.6,71.5,29.95,East,89,0.0,0.0,90,0.00,CLR,,0.00,WeatherDisplay:10.37,2013-09-15 05:02:00,
2013-09-15 01:07:00,74.5,71.4,29.95,NE,46,0.6,1.2,90,0.00,CLR,,0.00,WeatherDisplay:10.37,2013-09-15 05:07:00,
2013-09-15 01:12:00,74.3,71.5,29.96,NE,50,0.0,1.2,91,0.00,CLR,,0.00,WeatherDisplay:10.37,2013-09-15 05:12:00,
2013-09-15 01:17:00,74.2,71.4,29.95,NE,50,0.0,0.0,91,0.00,CLR,,0.00,WeatherDisplay:10.37,2013-09-15 05:17:00,
2013-09-15 01:22:00,74.2,71.4,29.95,NE,53,0.0,0.0,91,0.00,CLR,,0.00,WeatherDisplay:10.37,2013-09-15 05:22:00,
2013-09-15 01:27:00,74.0,71.2,29.95,SE,127,0.0,0.0,91,0.00,CLR,,0.00,WeatherDisplay:10.37,2013-09-15 05:27:00,
2013-09-15 01:32:00,74.0,71.2,29.96,ENE,57,0.1,1.2,91,0.00,CLR,,0.00,WeatherDisplay:10.37,2013-09-15 05:32:00,
2013-09-15 07:59:00,76.6,75.1,29.95,ESE,122,0.0,5.0,95,0.00,CLR,,0.00,WeatherDisplay:10.37,2013-09-15 11:59:00,
2013-09-15 08:04:00,77.2,75.3,29.96,ESE,102,1.0,1.2,94,0.00,CLR,,0.00,WeatherDisplay:10.37,2013-09-15 12:04:00,
2013-09-15 08:09:00,77.7,75.5,29.96,ESE,114,2.0,3.5,93,0.00,CLR,,0.00,WeatherDisplay:10.37,2013-09-15 12:09:00,
2013-09-15 08:14:00,78.2,75.7,29.96,ESE,113,2.4,4.0,92,0.00,CLR,,0.00,WeatherDisplay:10.37,2013-09-15 12:14:00,
2013-09-15 08:19:00,78.4,75.6,29.96,ESE,104,0.8,3.5,91,0.00,CLR,,0.00,WeatherDisplay:10.37,2013-09-15 12:19:00,
2013-09-15 08:24:00,78.9,75.7,29.96,East,89,2.4,4.6,90,0.00,CLR,,0.00,WeatherDisplay:10.37,2013-09-15 12:24:00,
2013-09-15 08:29:00,79.5,76.0,29.96,SE,131,3.7,4.6,89,0.00,CLR,,0.00,WeatherDisplay:10.37,2013-09-15 12:29:00,
2013-09-15 08:34:00,79.8,76.3,29.97,SSE,167,1.7,5.8,89,0.00,CLR,,0.00,WeatherDisplay:10.37,2013-09-15 12:34:00,
2013-09-15 08:39:00,80.0,76.1,29.96,ESE,122,1.8,3.5,88,0.00,CLR,,0.00,WeatherDisplay:10.37,2013-09-15 12:39:00,
2013-09-15 08:44:00,80.1,76.2,29.97,SE,127,0.3,2.3,88,0.00,CLR,,0.00,WeatherDisplay:10.37,2013-09-15 12:44:00,
2013-09-15 08:49:00,80.7,76.8,29.97,SE,135,0.6,2.0,88,0.00,CLR,,0.00,WeatherDisplay:10.37,2013-09-15 12:49:00,
2013-09-15 08:54:00,81.5,76.9,29.97,ESE,115,1.9,4.0,86,0.00,CLR,,0.00,WeatherDisplay:10.37,2013-09-15 12:54:00,
2013-09-15 08:59:00,81.5,76.6,29.97,ENE,77,3.2,5.0,85,0.00,CLR,,0.00,WeatherDisplay:10.37,2013-09-15 12:59:00,
2013-09-15 09:04:00,81.8,76.8,29.97,East,99,2.7,5.8,85,0.00,CLR,,0.00,WeatherDisplay:10.37,2013-09-15 13:04:00,
2013-09-15 09:10:00,82.3,77.3,29.97,ESE,110,1.8,5.0,85,0.00,CLR,,0.00,WeatherDisplay:10.37,2013-09-15 13:10:00,
2013-09-15 09:15:00,82.8,77.5,29.98,North,4,0.6,2.0,84,0.00,CLR,,0.00,WeatherDisplay:10.37,2013-09-15 13:15:00,
2013-09-15 09:20:00,83.4,77.7,29.98,East,90,1.5,3.5,83,0.00,CLR,,0.00,WeatherDisplay:10.37,2013-09-15 13:20:00,
2013-09-15 09:25:00,84.1,78.0,29.98,East,92,1.2,3.5,82,0.00,CLR,,0.00,WeatherDisplay:10.37,2013-09-15 13:25:00,
2013-09-15 09:30:00,84.0,77.2,29.99,ESE,108,1.8,4.6,80,0.00,CLR,,0.00,WeatherDisplay:10.37,2013-09-15 13:30:00,
2013-09-15 09:35:00,84.0,77.2,29.99,ESE,122,1.1,2.3,80,0.00,CLR,,0.00,WeatherDisplay:10.37,2013-09-15 13:35:00,
2013-09-15 09:40:00,84.3,77.5,29.99,SSE,158,0.6,1.2,80,0.00,CLR,,0.00,WeatherDisplay:10.37,2013-09-15 13:40:00,
2013-09-15 09:45:00,84.6,77.4,29.99,SSE,147,0.1,2.3,79,0.00,CLR,,0.00,WeatherDisplay:10.37,2013-09-15 13:45:00,
2013-09-15 09:50:00,84.7,76.7,29.99,ESE,122,1.1,5.8,77,0.00,CLR,,0.00,WeatherDisplay:10.37,2013-09-15 13:50:00,
2013-09-15 09:55:00,85.2,76.8,29.99,ESE,123,0.5,2.3,76,0.00,CLR,,0.00,WeatherDisplay:10.37,2013-09-15 13:55:00,
2013-09-15 10:00:00,85.5,76.3,29.99,East,86,2.6,3.5,74,0.00,CLR,,0.00,WeatherDisplay:10.37,2013-09-15 14:00:00,
2013-09-15 10:05:00,85.2,75.6,29.99,SE,132,5.0,9.2,73,0.00,CLR,,0.00,WeatherDisplay:10.37,2013-09-15 14:05:00,
2013-09-15 10:10:00,85.4,76.2,30.00,ESE,118,2.0,4.6,74,0.00,CLR,,0.00,WeatherDisplay:10.37,2013-09-15 14:10:00,
2013-09-15 10:15:00,85.9,75.8,30.00,East,97,2.3,3.5,72,0.00,CLR,,0.00,WeatherDisplay:10.37,2013-09-15 14:15:00,
2013-09-15 10:20:00,86.2,76.1,30.00,East,94,2.9,6.0,72,0.00,CLR,,0.00,WeatherDisplay:10.37,2013-09-15 14:20:00,
2013-09-15 10:25:00,85.8,75.7,30.00,ESE,119,4.8,8.1,72,0.00,CLR,,0.00,WeatherDisplay:10.37,2013-09-15 14:25:00,
2013-09-15 10:30:00,86.0,75.9,30.00,East,79,1.0,4.0,72,0.00,CLR,,0.00,WeatherDisplay:10.37,2013-09-15 14:30:00,
2013-09-15 10:35:00,86.6,75.6,30.00,SE,143,2.5,6.9,70,0.00,CLR,,0.00,WeatherDisplay:10.37,2013-09-15 14:35:00,
2013-09-15 10:40:00,86.7,75.7,30.00,ESE,108,3.7,6.9,70,0.00,CLR,,0.00,WeatherDisplay:10.37,2013-09-15 14:40:00,
2013-09-15 10:45:00,86.6,76.1,30.00,SE,132,2.2,5.8,71,0.00,CLR,,0.00,WeatherDisplay:10.37,2013-09-15 14:45:00,
2013-09-15 10:50:00,86.6,75.6,30.00,ENE,76,3.5,6.9,70,0.00,CLR,,0.00,WeatherDisplay:10.37,2013-09-15 14:50:00,
2013-09-15 10:55:00,86.8,75.8,30.00,NE,36,2.2,3.5,70,0.00,CLR,,0.00,WeatherDisplay:10.37,2013-09-15 14:55:00,
2013-09-15 11:00:00,87.0,75.6,30.00,ENE,60,4.7,8.1,69,0.00,CLR,,0.00,WeatherDisplay:10.37,2013-09-15 15:00:00,
2013-09-15 11:05:00,87.0,75.2,30.00,East,84,2.4,5.8,68,0.00,CLR,,0.00,WeatherDisplay:10.37,2013-09-15 15:05:00,
2013-09-15 11:10:00,87.3,75.0,30.00,East,86,3.1,8.1,67,0.00,CLR,,0.00,WeatherDisplay:10.37,2013-09-15 15:10:00,
2013-09-15 11:15:00,87.7,75.8,30.01,ESE,106,3.0,6.9,68,0.00,CLR,,0.00,WeatherDisplay:10.37,2013-09-15 15:15:00,
2013-09-15 11:20:00,87.8,75.9,30.01,SSE,153,2.5,4.6,68,0.00,CLR,,0.00,WeatherDisplay:10.37,2013-09-15 15:20:00,
2013-09-15 11:25:00,88.1,76.6,30.01,ESE,123,4.2,7.0,69,0.00,CLR,,0.00,WeatherDisplay:10.37,2013-09-15 15:25:00,
2013-09-15 11:30:00,88.0,76.5,30.01,SE,134,2.8,5.8,69,0.00,CLR,,0.00,WeatherDisplay:10.37,2013-09-15 15:30:00,
2013-09-15 11:35:00,88.7,76.8,30.01,SSE,160,3.8,6.9,68,0.00,CLR,,0.00,WeatherDisplay:10.37,2013-09-15 15:35:00,
2013-09-15 11:40:00,88.7,76.3,30.01,East,84,3.0,7.0,67,0.00,CLR,,0.00,WeatherDisplay:10.37,2013-09-15 15:40:00,
2013-09-15 11:45:00,88.4,76.5,30.01,East,82,2.2,3.5,68,0.00,CLR,,0.00,WeatherDisplay:10.37,2013-09-15 15:45:00,
2013-09-15 11:50:00,88.6,76.2,30.01,North,358,2.3,8.1,67,0.00,CLR,,0.00,WeatherDisplay:10.37,2013-09-15 15:50:00,
2013-09-15 11:55:00,88.7,75.4,30.01,NE,37,4.2,10.4,65,0.00,CLR,,0.00,WeatherDisplay:10.37,2013-09-15 15:55:00,
2013-09-15 12:00:00,89.4,76.1,30.01,ESE,105,3.1,5.8,65,0.00,CLR,,0.00,WeatherDisplay:10.37,2013-09-15 16:00:00,
2013-09-15 12:05:00,89.7,74.5,30.01,East,101,5.5,11.5,61,0.00,FEW,,0.00,WeatherDisplay:10.37,2013-09-15 16:05:00,
2013-09-15 12:10:00,89.5,75.7,30.00,SW,226,2.0,4.6,64,0.00,FEW,,0.00,WeatherDisplay:10.37,2013-09-15 16:10:00,
2013-09-15 12:15:00,90.2,75.9,30.00,NE,36,2.4,6.9,63,0.00,FEW,,0.00,WeatherDisplay:10.37,2013-09-15 16:15:00,
2013-09-15 12:20:00,90.5,75.7,30.00,SE,126,3.7,8.1,62,0.00,FEW,,0.00,WeatherDisplay:10.37,2013-09-15 16:20:00,
2013-09-15 12:25:00,89.7,74.9,30.00,SSE,163,2.5,7.0,62,0.00,FEW,,0.00,WeatherDisplay:10.37,2013-09-15 16:25:00,
2013-09-15 12:30:00,90.4,75.6,30.00,ENE,74,3.0,3.5,62,0.00,FEW,,0.00,WeatherDisplay:10.37,2013-09-15 16:30:00,
2013-09-15 12:35:00,91.2,75.4,30.00,East,95,3.3,5.0,60,0.00,FEW,,0.00,WeatherDisplay:10.37,2013-09-15 16:35:00,
2013-09-15 12:40:00,91.3,75.5,29.99,East,94,3.4,6.9,60,0.00,FEW,,0.00,WeatherDisplay:10.37,2013-09-15 16:40:00,
2013-09-15 12:45:00,90.9,74.6,29.99,ESE,105,3.6,10.4,59,0.00,FEW,,0.00,WeatherDisplay:10.37,2013-09-15 16:45:00,
2013-09-15 12:50:00,91.0,75.7,29.99,NE,53,4.8,10.4,61,0.00,FEW,,0.00,WeatherDisplay:10.37,2013-09-15 16:50:00,
2013-09-15 12:55:00,91.4,75.1,29.99,NNE,25,5.6,9.2,59,0.00,FEW,,0.00,WeatherDisplay:10.37,2013-09-15 16:55:00,
2013-09-15 13:00:00,91.2,74.4,29.99,East,95,4.0,11.5,58,0.00,FEW,,0.00,WeatherDisplay:10.37,2013-09-15 17:00:00,
2013-09-15 13:05:00,91.5,76.1,29.99,SE,131,2.1,6.9,61,0.00,SCT,,0.00,WeatherDisplay:10.37,2013-09-15 17:05:00,
2013-09-15 13:10:00,91.3,75.0,29.99,ESE,105,7.0,15.0,59,0.00,SCT,,0.00,WeatherDisplay:10.37,2013-09-15 17:10:00,
2013-09-15 13:15:00,91.1,75.8,29.99,NNE,32,3.4,8.1,61,0.00,SCT,,0.00,WeatherDisplay:10.37,2013-09-15 17:15:00,
2013-09-15 13:20:00,91.4,75.1,29.99,ESE,119,2.4,7.0,59,0.00,SCT,,0.00,WeatherDisplay:10.37,2013-09-15 17:20:00,
2013-09-15 13:25:00,90.8,75.0,29.98,ENE,65,2.9,4.6,60,0.00,SCT,,0.00,WeatherDisplay:10.37,2013-09-15 17:25:00,
2013-09-15 13:30:00,91.7,75.3,29.98,East,84,3.1,4.0,59,0.00,SCT,,0.00,WeatherDisplay:10.37,2013-09-15 17:30:00,
2013-09-15 13:35:00,92.1,74.7,29.98,East,94,1.6,3.0,57,0.00,SCT,,0.00,WeatherDisplay:10.37,2013-09-15 17:35:00,
2013-09-15 13:40:00,92.2,75.3,29.97,ENE,63,4.1,8.1,58,0.00,SCT,,0.00,WeatherDisplay:10.37,2013-09-15 17:40:00,
2013-09-15 13:45:00,91.8,75.4,29.97,ESE,106,2.4,4.6,59,0.00,SCT,,0.00,WeatherDisplay:10.37,2013-09-15 17:45:00,
2013-09-15 13:50:00,91.9,74.5,29.97,ESE,108,6.8,11.5,57,0.00,SCT,,0.00,WeatherDisplay:10.37,2013-09-15 17:50:00,
2013-09-15 13:55:00,92.1,74.7,29.96,WSW,246,3.5,10.4,57,0.00,SCT,,0.00,WeatherDisplay:10.37,2013-09-15 17:55:00,
2013-09-15 14:00:00,92.8,74.8,29.96,ESE,113,3.5,10.4,56,0.00,SCT,,0.00,WeatherDisplay:10.37,2013-09-15 18:00:00,
2013-09-15 14:05:00,92.8,74.8,29.96,NW,316,1.6,3.5,56,0.00,FEW,,0.00,WeatherDisplay:10.37,2013-09-15 18:05:00,
2013-09-15 14:10:00,93.4,74.3,29.96,ESE,118,0.7,3.0,54,0.00,FEW,,0.00,WeatherDisplay:10.37,2013-09-15 18:10:00,
2013-09-15 14:15:00,93.8,75.2,29.96,NE,39,2.8,3.5,55,0.00,FEW,,0.00,WeatherDisplay:10.37,2013-09-15 18:15:00,
2013-09-15 14:20:00,94.0,75.9,29.96,ENE,67,1.8,8.1,56,0.00,FEW,,0.00,WeatherDisplay:10.37,2013-09-15 18:20:00,
2013-09-15 14:26:00,93.4,74.3,29.96,ENE,74,3.5,6.9,54,0.00,FEW,,0.00,WeatherDisplay:10.37,2013-09-15 18:26:00,
2013-09-15 14:31:00,93.7,74.0,29.96,SSE,162,1.9,3.5,53,0.00,FEW,,0.00,WeatherDisplay:10.37,2013-09-15 18:31:00,
2013-09-15 14:36:00,93.1,74.5,29.96,East,99,2.7,6.0,55,0.00,FEW,,0.00,WeatherDisplay:10.37,2013-09-15 18:36:00,
2013-09-15 14:41:00,92.7,74.7,29.96,ESE,119,2.1,4.6,56,0.00,FEW,,0.00,WeatherDisplay:10.37,2013-09-15 18:41:00,
2013-09-15 14:46:00,92.6,74.6,29.96,NNE,29,2.9,4.6,56,0.00,FEW,,0.00,WeatherDisplay:10.37,2013-09-15 18:46:00,
2013-09-15 14:51:00,92.5,74.0,29.96,SSE,155,2.3,4.6,55,0.00,FEW,,0.00,WeatherDisplay:10.37,2013-09-15 18:51:00,
2013-09-15 14:56:00,92.1,74.1,29.96,NE,46,3.1,6.9,56,0.00,FEW,,0.00,WeatherDisplay:10.37,2013-09-15 18:56:00,
2013-09-15 15:01:00,92.2,74.2,29.96,ESE,105,8.0,13.8,56,0.00,FEW,,0.00,WeatherDisplay:10.37,2013-09-15 19:01:00,
2013-09-15 15:06:00,92.9,75.4,29.96,SSW,194,2.0,4.6,57,0.00,SCT,,0.00,WeatherDisplay:10.37,2013-09-15 19:06:00,
2013-09-15 15:11:00,93.2,74.6,29.96,NNE,27,4.2,8.1,55,0.00,SCT,,0.00,WeatherDisplay:10.37,2013-09-15 19:11:00,
2013-09-15 15:16:00,92.4,75.0,29.96,ESE,123,2.9,6.9,57,0.00,SCT,,0.00,WeatherDisplay:10.37,2013-09-15 19:16:00,
2013-09-15 15:18:00,92.1,74.1,29.95,ESE,105,4.9,9.2,56,0.00,SCT,,0.00,WeatherDisplay:10.37,2013-09-15 19:18:00,
2013-09-15 15:23:00,91.8,74.4,29.95,WSW,239,1.3,4.6,57,0.00,SCT,,0.00,WeatherDisplay:10.37,2013-09-15 19:23:00,
2013-09-15 15:28:00,91.7,74.3,29.94,SE,131,2.8,8.1,57,0.00,SCT,,0.00,WeatherDisplay:10.37,2013-09-15 19:28:00,
2013-09-15 15:33:00,91.6,73.7,29.94,SE,136,5.9,9.2,56,0.00,SCT,,0.00,WeatherDisplay:10.37,2013-09-15 19:33:00,
2013-09-15 15:38:00,92.4,75.0,29.94,NE,53,2.2,5.8,57,0.00,SCT,,0.00,WeatherDisplay:10.37,2013-09-15 19:38:00,
2013-09-15 15:43:00,92.9,74.4,29.93,SSE,151,2.9,5.0,55,0.00,SCT,,0.00,WeatherDisplay:10.37,2013-09-15 19:43:00,
2013-09-15 15:48:00,93.0,74.4,29.93,East,98,2.6,11.5,55,0.00,SCT,,0.00,WeatherDisplay:10.37,2013-09-15 19:48:00,
2013-09-15 15:53:00,92.9,74.4,29.93,SSE,163,2.3,3.5,55,0.00,SCT,,0.00,WeatherDisplay:10.37,2013-09-15 19:53:00,
2013-09-15 15:58:00,93.3,74.7,29.93,SSW,207,2.6,5.0,55,0.00,SCT,,0.00,WeatherDisplay:10.37,2013-09-15 19:58:00,
2013-09-15 16:03:00,93.7,75.1,29.93,SE,143,2.8,3.5,55,0.00,FEW,,0.00,WeatherDisplay:10.37,2013-09-15 20:03:00,
2013-09-15 16:08:00,93.2,74.1,29.93,East,101,4.1,9.2,54,0.00,FEW,,0.00,WeatherDisplay:10.37,2013-09-15 20:08:00,
2013-09-15 16:13:00,92.7,75.2,29.93,NE,51,4.6,8.1,57,0.00,FEW,,0.00,WeatherDisplay:10.37,2013-09-15 20:13:00,
2013-09-15 16:18:00,90.3,73.5,29.93,East,82,6.1,15.0,58,0.00,FEW,,0.00,WeatherDisplay:10.37,2013-09-15 20:18:00,
2013-09-15 16:23:00,87.6,73.0,29.95,SE,128,10.0,17.0,62,0.00,FEW,,0.00,WeatherDisplay:10.37,2013-09-15 20:23:00,
2013-09-15 16:28:00,83.6,73.2,29.97,SSE,152,8.5,18.4,71,0.01,RA,,0.02,WeatherDisplay:10.37,2013-09-15 20:28:00,
2013-09-15 16:33:00,79.3,73.3,29.98,SSW,204,5.6,16.1,82,0.09,RA,,0.12,WeatherDisplay:10.37,2013-09-15 20:33:00,
2013-09-15 16:38:00,76.1,71.9,30.00,ESE,105,10.9,13.8,87,0.50,RA,,0.57,WeatherDisplay:10.37,2013-09-15 20:38:00,
2013-09-15 16:43:00,74.7,72.2,30.02,SSE,162,6.5,11.5,92,0.75,RA,,0.78,WeatherDisplay:10.37,2013-09-15 20:43:00,
2013-09-15 16:48:00,74.3,72.1,30.02,NNE,27,3.2,4.0,93,0.89,RA,,0.90,WeatherDisplay:10.37,2013-09-15 20:48:00,
2013-09-15 16:53:00,73.6,71.4,30.02,SSE,164,4.0,19.6,93,0.97,RA,,0.99,WeatherDisplay:10.37,2013-09-15 20:53:00,
2013-09-15 16:58:00,73.3,71.8,30.02,ESE,102,1.8,11.5,95,1.02,RA,,1.03,WeatherDisplay:10.37,2013-09-15 20:58:00,
2013-09-15 17:04:00,73.5,72.0,30.02,NNW,342,11.3,19.0,95,1.06,RA,,1.06,WeatherDisplay:10.37,2013-09-15 21:04:00,
2013-09-15 17:09:00,72.8,71.3,30.03,NE,50,9.4,17.3,95,1.09,RA,,1.09,WeatherDisplay:10.37,2013-09-15 21:09:00,
2013-09-15 17:14:00,72.3,70.8,30.04,SE,135,6.3,13.8,95,1.10,OVC,,1.10,WeatherDisplay:10.37,2013-09-15 21:14:00,
2013-09-15 17:19:00,71.7,70.2,30.05,South,184,8.7,18.4,95,1.13,RA,,1.13,WeatherDisplay:10.37,2013-09-15 21:19:00,
2013-09-15 17:24:00,71.4,69.9,30.04,East,86,5.2,18.4,95,1.16,RA,,1.16,WeatherDisplay:10.37,2013-09-15 21:24:00,
2013-09-15 17:29:00,70.9,69.4,30.05,NE,53,4.9,8.1,95,1.16,OVC,,1.17,WeatherDisplay:10.37,2013-09-15 21:29:00,
2013-09-15 17:34:00,70.8,69.6,30.05,North,357,3.5,6.9,96,1.14,RA,,1.23,WeatherDisplay:10.37,2013-09-15 21:34:00,
2013-09-15 17:39:00,70.7,69.2,30.04,ENE,73,3.3,9.0,95,0.80,RA,,1.30,WeatherDisplay:10.37,2013-09-15 21:39:00,
2013-09-15 17:44:00,70.6,69.4,30.05,East,79,2.2,4.0,96,0.60,RA,,1.36,WeatherDisplay:10.37,2013-09-15 21:44:00,
2013-09-15 17:49:00,70.5,69.3,30.04,NE,56,1.7,3.5,96,0.55,RA,,1.44,WeatherDisplay:10.37,2013-09-15 21:49:00,
2013-09-15 17:54:00,70.6,69.4,30.04,ESE,105,4.6,11.5,96,0.52,-RA,,1.50,WeatherDisplay:10.37,2013-09-15 21:54:00,
2013-09-15 17:59:00,70.7,69.5,30.04,NE,39,2.1,3.5,96,0.53,-RA,,1.55,WeatherDisplay:10.37,2013-09-15 21:59:00,
2013-09-15 18:04:00,70.9,69.7,30.04,East,94,2.2,3.5,96,0.53,RA,,1.59,WeatherDisplay:10.37,2013-09-15 22:04:00,
2013-09-15 18:09:00,71.4,70.2,30.03,SE,136,0.3,1.2,96,0.53,OVC,,1.61,WeatherDisplay:10.37,2013-09-15 22:09:00,
2013-09-15 18:14:00,71.5,70.3,30.02,SW,218,1.6,3.5,96,0.52,OVC,,1.62,WeatherDisplay:10.37,2013-09-15 22:14:00,
2013-09-15 18:19:00,71.6,70.4,30.02,SSW,199,0.6,2.3,96,0.50,OVC,,1.62,WeatherDisplay:10.37,2013-09-15 22:19:00,
2013-09-15 18:24:00,71.6,70.4,30.02,SSE,150,0.1,1.2,96,0.47,OVC,,1.62,WeatherDisplay:10.37,2013-09-15 22:24:00,
2013-09-15 18:29:00,71.8,70.6,30.02,SSW,198,1.0,2.0,96,0.46,OVC,,1.63,WeatherDisplay:10.37,2013-09-15 22:29:00,
2013-09-15 18:34:00,71.8,70.6,30.02,SSE,162,1.4,3.5,96,0.40,OVC,,1.63,WeatherDisplay:10.37,2013-09-15 22:34:00,
2013-09-15 18:39:00,71.8,70.6,30.01,SE,139,0.4,1.2,96,0.34,OVC,,1.64,WeatherDisplay:10.37,2013-09-15 22:39:00,
2013-09-15 18:44:00,72.2,71.3,30.01,ESE,123,0.3,2.3,97,0.29,OVC,,1.64,WeatherDisplay:10.37,2013-09-15 22:44:00,
2013-09-15 18:49:00,72.3,71.1,30.01,South,182,1.1,2.3,96,0.21,OVC,,1.65,WeatherDisplay:10.37,2013-09-15 22:49:00,
2013-09-15 18:54:00,72.5,71.6,30.01,SSE,152,1.1,2.3,97,0.16,OVC,,1.65,WeatherDisplay:10.37,2013-09-15 22:54:00,
2013-09-15 18:59:00,72.7,71.5,30.00,South,176,0.6,2.3,96,0.11,OVC,,1.66,WeatherDisplay:10.37,2013-09-15 22:59:00,
2013-09-15 19:04:00,72.7,71.5,30.00,West,259,0.2,1.2,96,0.08,-RA,,1.66,WeatherDisplay:10.37,2013-09-15 23:04:00,
2013-09-15 19:09:00,72.8,71.9,30.00,West,259,0.0,0.0,97,0.06,-RA,,1.67,WeatherDisplay:10.37,2013-09-15 23:09:00,
2013-09-15 19:14:00,72.9,72.0,30.00,West,259,0.0,0.0,97,0.06,-RA,,1.68,WeatherDisplay:10.37,2013-09-15 23:14:00,
2013-09-15 19:19:00,73.2,72.3,30.00,SW,214,0.3,1.2,97,0.06,-RA,,1.68,WeatherDisplay:10.37,2013-09-15 23:19:00,
2013-09-15 19:24:00,73.4,72.5,30.00,NW,313,0.0,1.2,97,0.07,-RA,,1.69,WeatherDisplay:10.37,2013-09-15 23:24:00,
2013-09-15 19:29:00,73.6,72.7,30.00,NNE,15,1.1,2.3,97,0.06,-RA,,1.69,WeatherDisplay:10.37,2013-09-15 23:29:00,
2013-09-15 19:34:00,73.7,72.8,29.99,SW,214,1.9,3.5,97,0.06,-RA,,1.69,WeatherDisplay:10.37,2013-09-15 23:34:00,
2013-09-15 19:39:00,73.7,72.8,29.99,SSW,208,1.7,3.5,97,0.06,-RA,,1.70,WeatherDisplay:10.37,2013-09-15 23:39:00,
2013-09-15 19:44:00,73.7,72.8,29.99,SW,224,1.2,3.5,97,0.06,-RA,,1.70,WeatherDisplay:10.37,2013-09-15 23:44:00,
2013-09-15 19:49:00,73.9,73.0,29.99,SW,216,3.1,4.6,97,0.05,-RA,,1.70,WeatherDisplay:10.37,2013-09-15 23:49:00,
2013-09-15 19:54:00,74.2,73.3,29.99,SSE,158,2.1,5.8,97,0.06,-RA,,1.71,WeatherDisplay:10.37,2013-09-15 23:54:00,
2013-09-15 19:59:00,74.5,73.6,29.98,SW,229,0.7,2.3,97,0.05,-RA,,1.71,WeatherDisplay:10.37,2013-09-15 23:59:00,
2013-09-15 20:04:00,74.7,73.8,29.98,SSW,203,0.0,1.2,97,0.05,BKN,,1.71,WeatherDisplay:10.37,2013-09-16 00:04:00,
2013-09-15 20:09:00,74.9,74.0,29.98,SW,229,4.0,10.4,97,0.04,BKN,,1.71,WeatherDisplay:10.37,2013-09-16 00:09:00,
2013-09-15 20:14:00,75.3,74.4,29.99,SSW,212,0.6,3.5,97,0.03,BKN,,1.71,WeatherDisplay:10.37,2013-09-16 00:14:00,
2013-09-15 20:19:00,75.5,74.6,29.99,ESE,122,1.5,3.5,97,0.03,BKN,,1.71,WeatherDisplay:10.37,2013-09-16 00:19:00,
2013-09-15 20:24:00,75.7,74.8,29.99,ESE,122,1.8,3.5,97,0.02,BKN,,1.71,WeatherDisplay:10.37,2013-09-16 00:24:00,
2013-09-15 20:29:00,75.8,74.6,29.99,SSE,149,1.5,3.5,96,0.02,BKN,,1.71,WeatherDisplay:10.37,2013-09-16 00:29:00,
2013-09-15 20:34:00,75.6,74.4,29.99,SSW,200,2.8,3.5,96,0.02,BKN,,1.71,WeatherDisplay:10.37,2013-09-16 00:34:00,
2013-09-15 20:39:00,75.5,74.0,29.99,South,177,3.5,5.8,95,0.01,BKN,,1.71,WeatherDisplay:10.37,2013-09-16 00:39:00,
2013-09-15 20:44:00,75.6,74.1,29.99,SSE,159,3.7,4.6,95,0.01,BKN,,1.71,WeatherDisplay:10.37,2013-09-16 00:44:00,
2013-09-15 20:49:00,75.7,74.2,29.99,SSE,156,4.8,6.9,95,0.01,BKN,,1.71,WeatherDisplay:10.37,2013-09-16 00:49:00,
2013-09-15 20:54:00,75.8,73.9,29.98,SSW,203,5.4,8.1,94,0.00,BKN,,1.71,WeatherDisplay:10.37,2013-09-16 00:54:00,
2013-09-15 20:59:00,76.0,74.1,29.99,East,94,2.9,5.8,94,0.00,BKN,,1.71,WeatherDisplay:10.37,2013-09-16 00:59:00,
2013-09-15 21:04:00,75.8,74.3,30.03,NNE,22,8.6,16.1,95,0.00,CLR,,1.71,WeatherDisplay:10.37,2013-09-16 01:04:00,
2013-09-15 21:09:00,74.9,73.1,30.04,ENE,70,3.3,8.1,94,0.00,CLR,,1.71,WeatherDisplay:10.37,2013-09-16 01:09:00,
2013-09-15 21:14:00,74.7,73.2,30.06,NE,34,2.5,9.2,95,0.00,CLR,,1.71,WeatherDisplay:10.37,2013-09-16 01:14:00,
2013-09-15 21:19:00,74.8,73.6,30.05,East,92,0.0,1.2,96,0.00,CLR,,1.71,WeatherDisplay:10.37,2013-09-16 01:19:00,
2013-09-15 21:24:00,74.8,73.3,30.05,NNE,29,1.1,1.2,95,0.00,CLR,,1.71,WeatherDisplay:10.37,2013-09-16 01:24:00,
2013-09-15 21:29:00,74.7,73.2,30.05,ENE,75,2.1,3.5,95,0.00,CLR,,1.71,WeatherDisplay:10.37,2013-09-16 01:29:00,
2013-09-15 21:34:00,74.5,73.0,30.06,ENE,77,1.0,3.5,95,0.00,CLR,,1.71,WeatherDisplay:10.37,2013-09-16 01:34:00,
2013-09-15 21:39:00,74.3,72.8,30.06,ENE,72,2.2,5.8,95,0.00,CLR,,1.71,WeatherDisplay:10.37,2013-09-16 01:39:00,
2013-09-15 21:44:00,74.3,73.1,30.07,ENE,65,0.4,1.2,96,0.00,CLR,,1.71,WeatherDisplay:10.37,2013-09-16 01:44:00,
2013-09-15 21:49:00,74.3,73.1,30.07,ENE,74,1.2,2.3,96,0.00,CLR,,1.71,WeatherDisplay:10.37,2013-09-16 01:49:00,
2013-09-15 21:54:00,74.2,73.0,30.06,East,94,1.0,3.5,96,0.00,CLR,,1.71,WeatherDisplay:10.37,2013-09-16 01:54:00,
2013-09-15 21:59:00,74.1,72.9,30.06,ESE,108,3.0,3.5,96,0.00,CLR,,1.71,WeatherDisplay:10.37,2013-09-16 01:59:00,
2013-09-15 22:04:00,74.1,72.9,30.06,ESE,106,0.9,3.0,96,0.00,CLR,,1.71,WeatherDisplay:10.37,2013-09-16 02:04:00,
2013-09-15 22:09:00,74.1,72.9,30.06,East,86,1.6,2.3,96,0.00,CLR,,1.71,WeatherDisplay:10.37,2013-09-16 02:09:00,
2013-09-15 22:14:00,74.0,72.8,30.06,East,101,0.0,2.3,96,0.00,CLR,,1.71,WeatherDisplay:10.37,2013-09-16 02:14:00,
2013-09-15 22:19:00,73.9,72.7,30.05,East,82,2.9,5.8,96,0.00,CLR,,1.71,WeatherDisplay:10.37,2013-09-16 02:19:00,
2013-09-15 22:24:00,73.9,72.7,30.05,ESE,111,2.0,3.5,96,0.00,CLR,,1.71,WeatherDisplay:10.37,2013-09-16 02:24:00,
2013-09-15 22:29:00,74.0,72.5,30.05,ESE,112,1.3,3.5,95,0.00,CLR,,1.71,WeatherDisplay:10.37,2013-09-16 02:29:00,
2013-09-15 22:34:00,74.0,72.5,30.04,ESE,107,2.4,4.6,95,0.00,CLR,,1.71,WeatherDisplay:10.37,2013-09-16 02:34:00,
2013-09-15 22:39:00,74.0,72.5,30.04,East,96,1.1,2.3,95,0.00,CLR,,1.71,WeatherDisplay:10.37,2013-09-16 02:39:00,
2013-09-15 22:44:00,74.1,72.6,30.04,ESE,104,0.5,3.5,95,0.00,CLR,,1.71,WeatherDisplay:10.37,2013-09-16 02:44:00,
2013-09-15 22:49:00,74.1,72.6,30.03,ESE,115,2.3,3.5,95,0.00,CLR,,1.71,WeatherDisplay:10.37,2013-09-16 02:49:00,
2013-09-15 22:54:00,74.2,72.7,30.03,ESE,108,0.4,1.2,95,0.00,CLR,,1.71,WeatherDisplay:10.37,2013-09-16 02:54:00,
2013-09-15 22:59:00,74.2,72.7,30.02,SE,131,1.7,3.5,95,0.00,CLR,,1.71,WeatherDisplay:10.37,2013-09-16 02:59:00,
2013-09-15 23:04:00,74.3,72.8,30.02,SE,138,2.0,3.5,95,0.00,CLR,,1.71,WeatherDisplay:10.37,2013-09-16 03:04:00,
2013-09-15 23:09:00,74.4,72.9,30.02,South,169,0.3,2.3,95,0.00,CLR,,1.71,WeatherDisplay:10.37,2013-09-16 03:09:00,
2013-09-15 23:14:00,74.4,72.9,30.02,ENE,77,0.0,1.2,95,0.00,CLR,,1.71,WeatherDisplay:10.37,2013-09-16 03:14:00,
2013-09-15 23:19:00,74.3,72.5,30.02,East,91,0.0,1.0,94,0.00,CLR,,1.71,WeatherDisplay:10.37,2013-09-16 03:19:00,
2013-09-15 23:24:00,74.1,72.6,30.01,East,92,0.0,0.0,95,0.00,CLR,,1.71,WeatherDisplay:10.37,2013-09-16 03:24:00,
2013-09-15 23:29:00,74.0,72.5,30.01,East,90,0.0,0.0,95,0.00,CLR,,1.71,WeatherDisplay:10.37,2013-09-16 03:29:00,
2013-09-15 23:34:00,73.9,72.4,30.01,East,91,0.0,0.0,95,0.00,CLR,,1.71,WeatherDisplay:10.37,2013-09-16 03:34:00,
2013-09-15 23:39:00,73.9,72.4,30.01,East,90,0.0,0.0,95,0.00,CLR,,1.71,WeatherDisplay:10.37,2013-09-16 03:39:00,
2013-09-15 23:44:00,73.9,72.4,30.01,East,90,0.0,1.2,95,0.00,CLR,,1.71,WeatherDisplay:10.37,2013-09-16 03:44:00,
2013-09-15 23:49:00,73.8,72.3,30.01,East,90,0.0,0.0,95,0.00,CLR,,1.71,WeatherDisplay:10.37,2013-09-16 03:49:00,
2013-09-15 23:54:00,73.6,72.4,30.01,East,90,0.0,0.0,96,0.00,CLR,,1.71,WeatherDisplay:10.37,2013-09-16 03:54:00,
2013-09-15 23:59:00,73.5,72.3,30.01,East,84,0.2,1.2,96,0.00,CLR,,1.71,WeatherDisplay:10.37,2013-09-16 03:59:00,